Temperature
8 6 6 7 8 8 9 9 9 9 10 10 10 10 11 12 12 13 14 15 15 16 17 17 17 17 16 16 16 16 16 16 16 15 15 15 15 15 15 14 14 14 14 14
6 7 8 8 9 9 9 9 9 10 10 10 10 10 11 12 12 13 14 15 15 16 16 17 17 17 16 16 16 16 16 16 16 16 15 15 15 15 15 15 14 14 14 14
7 8 9 9 9 9 9 9 9 9 10 10 10 10 10 11 13 13 14 15 15 16 16 17 17 17 17 17 17 16 16 16 16 16 15 15 15 15 14 14 14 14 14 14
7 8 9 9 9 9 9 10 10 10 9 9 10 9 10 10 11 12 14 15 15 16 16 16 17 17 17 17 17 17 16 16 16 16 15 15 15 15 15 15 14 14 14 14
7 8 8 8 9 9 9 9 9 9 9 8 9 8 9 10 11 11 12 14 15 16 16 16 17 17 17 17 17 17 16 16 16 16 15 15 15 15 15 14 14 14 14 14
7 8 8 9 9 9 9 9 8 7 7 8 8 8 8 9 11 11 12 14 15 16 16 16 16 16 16 16 16 16 16 16 16 16 15 15 15 15 14 14 14 14 14 14
7 8 8 9 9 9 8 7 6 6 6 7 8 8 9 10 10 11 12 14 15 15 16 16 16 16 16 16 16 16 16 16 15 15 15 15 15 14 14 14 14 14 14 13
6 6 8 8 8 8 8 7 6 6 6 6 8 8 9 10 11 13 13 14 15 15 15 16 16 16 16 16 16 15 15 15 15 15 15 14 14 14 14 14 13 13 13 13
6 6 8 8 9 8 8 7 7 6 6 6 7 8 9 11 11 11 12 13 14 14 15 15 15 15 15 15 15 15 15 15 14 14 14 14 14 13 13 13 13 13 12 12
7 7 7 8 9 8 8 7 6 6 6 7 7 8 8 10 10 10 10 12 13 13 14 14 14 14 14 14 14 14 14 14 14 14 13 13 13 13 12 12 12 12 12 12
7 6 6 7 7 7 7 7 7 6 6 6 7 8 9 9 10 9 10 11 12 13 13 13 13 14 14 14 13 13 13 13 13 13 13 12 12 12 12 12 12 11 11 11
7 5 5 6 7 7 7 7 6 6 6 5 6 7 9 9 9 10 10 11 12 12 12 13 13 13 13 13 13 13 12 12 12 12 12 12 11 11 11 11 11 11 10 10
7 5 4 5 6 7 7 7 7 6 5 5 5 7 9 8 9 10 10 11 11 12 12 12 12 12 12 12 12 12 12 11 11 11 11 10 10 10 10 10 10 10 10 9
7 5 4 5 6 6 6 6 6 5 5 5 5 7 8 9 9 9 10 10 11 11 11 11 11 11 11 11 11 11 11 10 10 10 10 10 10 9 9 9 9 9 9 9
6 5 5 5 6 6 6 6 6 5 5 5 6 6 8 8 8 9 9 9 10 10 10 10 11 11 11 11 10 10 10 10 9 9 9 9 9 9 9 9 9 8 8 8
5 5 5 5 6 5 6 6 6 6 6 6 6 6 7 8 8 8 8 9 9 9 9 9 10 10 10 10 10 10 9 9 9 9 9 8 8 8 8 8 8 8 7 7
4 4 4 4 4 5 4 5 6 6 6 6 6 6 7 7 7 7 7 7 7 8 8 9 9 9 9 9 9 9 9 9 8 8 8 8 8 8 8 7 7 7 7 6
4 4 3 3 4 4 5 6 6 6 6 6 6 6 6 7 7 7 7 7 7 7 7 8 8 8 9 9 9 9 8 8 8 8 8 8 7 7 7 7 7 6 6 5
4 4 3 3 3 3 5 6 6 5 6 5 5 5 5 6 6 6 7 6 6 6 7 7 7 8 8 8 8 8 8 8 8 8 7 7 7 7 7 6 6 6 5 5
3 3 3 3 3 4 5 6 6 6 5 5 5 4 5 5 4 5 6 6 6 6 6 6 7 7 7 8 8 8 8 7 7 7 7 7 7 6 6 6 5 5 4 4
3 3 3 2 3 3 4 5 6 5 4 4 4 4 4 4 4 4 5 5 5 5 6 6 6 6 7 7 7 7 7 7 7 7 6 6 6 6 5 5 4 4 3 3
3 2 2 2 3 3 4 4 4 4 4 4 4 4 3 4 4 4 4 5 5 5 5 5 6 6 6 6 6 6 7 6 6 6 6 6 5 5 4 4 4 3 3 2
2 3 2 2 3 4 4 4 4 4 3 3 3 3 3 3 3 3 4 4 4 4 5 5 5 5 5 5 5 6 6 6 6 5 5 5 5 4 4 3 3 3 2 2
2 2 2 2 2 3 4 4 4 3 3 3 3 2 3 2 2 3 3 3 3 4 4 4 4 4 5 5 5 5 5 5 5 5 4 4 4 4 3 3 2 2 2 2
2 2 1 1 2 3 3 3 3 3 2 2 2 2 2 2 2 2 2 3 3 3 3 3 3 4 4 4 4 4 4 4 4 4 4 4 3 3 3 2 2 2 1 1
0 1 1 1 2 2 2 3 2 2 2 2 2 2 1 1 2 2 2 2 2 3 3 3 3 3 3 3 4 4 4 3 3 3 3 3 3 2 2 2 1 1 1 0
Wind_Speed
3 4 2 2 3 3 4 4 4 3 4 4 6 7 8 8 6 8 9 9 9 10 9 7 7 8 7 8 10 10 11 10 9 6 6 6 6 5 5 6 9 10 10 10
5 3 1 2 2 2 3 4 2 1 4 4 4 7 8 8 10 11 11 11 11 10 8 7 7 7 8 9 10 10 11 11 10 8 7 5 5 4 4 4 6 8 9 8
3 1 0 3 3 3 2 4 3 2 0 1 2 4 8 8 9 10 10 10 11 12 11 9 9 9 9 10 11 11 11 11 10 9 5 4 3 3 3 4 4 5 8 8
2 1 2 4 2 3 1 1 3 3 3 1 2 3 7 7 9 11 12 11 12 11 11 9 9 9 10 10 9 9 10 10 9 9 9 9 7 6 6 5 5 4 6 7
2 2 3 3 0 2 2 1 3 3 2 1 0 3 7 4 8 12 12 12 12 12 11 11 10 11 10 9 8 8 9 9 8 9 10 10 7 6 4 4 6 4 3 4
1 1 1 1 1 2 3 5 5 4 3 2 4 5 7 6 10 9 10 11 11 11 10 9 8 7 7 6 6 7 8 7 7 8 9 10 10 8 8 7 7 5 3 3
4 3 2 0 2 3 5 5 3 2 1 5 4 4 9 9 10 11 10 9 9 8 8 8 8 7 7 7 7 7 8 7 7 7 8 9 9 10 10 8 8 6 4 3
1 3 3 0 2 3 2 5 5 4 4 4 3 6 8 9 7 6 7 7 6 6 6 7 7 8 8 8 8 7 8 6 6 6 6 6 6 6 6 6 6 6 4 4
4 3 2 1 2 5 3 3 4 3 1 3 5 6 8 5 4 3 2 2 4 4 4 4 5 6 7 8 8 8 8 7 6 6 6 5 6 6 6 6 6 6 5 5
4 1 2 1 2 1 3 4 4 3 2 4 5 4 4 6 5 3 2 1 2 2 2 3 4 5 5 6 5 5 6 6 6 6 6 5 6 6 7 7 7 7 6 6
3 3 2 1 3 4 2 2 3 3 3 3 3 6 5 5 4 2 2 2 2 3 3 3 3 4 4 5 5 6 6 6 6 6 6 6 6 6 6 6 7 7 6 6
3 4 2 5 4 3 4 5 5 3 4 4 3 7 6 5 3 2 2 3 3 3 2 2 2 2 3 4 5 6 6 6 6 6 7 7 6 6 6 7 6 6 6 6
4 4 1 4 3 1 2 3 4 3 2 4 5 7 5 6 6 6 5 4 4 3 2 1 2 3 4 5 5 6 6 7 6 7 7 7 7 7 7 7 7 6 6 5
4 4 5 7 5 3 4 5 5 4 4 6 8 10 9 9 9 9 8 6 5 4 4 3 4 4 5 5 6 6 6 6 7 7 8 8 7 7 7 7 7 7 6 6
4 3 5 6 6 5 7 9 8 9 9 8 9 10 11 9 8 7 7 6 5 5 5 5 5 5 5 5 5 6 6 7 8 8 8 8 7 7 7 7 7 7 6 6
3 2 1 4 5 6 8 10 10 10 9 10 10 11 9 8 5 6 7 6 6 6 6 6 6 6 6 6 7 7 7 7 8 9 8 7 7 8 8 7 7 7 6 6
3 3 1 3 4 3 7 7 7 6 6 7 9 9 7 7 6 6 5 5 6 7 7 7 6 6 7 7 7 8 8 7 8 8 8 8 8 8 8 8 7 7 6 5
5 4 2 1 2 5 7 2 2 4 4 3 4 5 5 6 6 3 2 3 6 7 7 7 6 6 6 5 6 6 6 8 8 8 8 9 9 8 8 8 8 7 5 5
6 6 3 2 3 7 6 3 1 3 3 2 3 5 6 5 3 3 3 4 5 7 7 7 6 6 5 5 5 5 6 7 8 9 9 9 9 9 9 9 8 6 6 5
4 4 4 3 3 6 5 4 4 1 3 3 4 5 6 5 4 5 8 8 8 8 7 7 6 5 4 4 3 6 7 8 9 10 9 9 9 10 10 9 7 5 5 6
3 3 4 5 5 7 4 4 2 1 4 4 4 5 5 4 5 8 10 9 8 8 8 6 6 5 4 3 3 5 6 8 8 6 7 8 9 9 8 7 6 6 6 6
7 6 5 5 6 8 2 2 2 4 3 4 5 5 6 7 8 8 9 9 8 8 8 6 5 5 4 2 2 4 5 5 5 6 7 7 8 7 7 8 7 7 7 7
6 8 6 8 7 3 2 3 2 1 2 4 4 6 7 8 9 9 9 8 8 8 8 5 4 5 4 2 1 3 3 3 5 6 6 6 7 6 7 8 8 7 7 6
3 2 3 4 5 3 2 1 1 2 4 5 6 7 7 8 9 10 9 8 8 7 6 5 4 4 4 3 2 2 2 4 5 6 6 6 7 6 7 6 7 7 7 7
5 4 3 4 4 2 2 2 4 5 5 6 6 7 7 8 9 9 8 8 7 6 5 3 3 4 4 3 2 1 1 3 4 5 5 5 6 6 7 6 7 8 7 8
5 6 6 6 5 4 5 5 4 5 6 6 7 8 7 7 8 8 8 7 6 6 4 4 4 3 3 3 2 2 0 2 4 4 4 4 5 5 5 5 5 8 9 12
Wind_Direction
27 66 93 144 139 149 153 147 165 200 186 177 208 233 246 251 250 251 252 247 243 240 242 237 215 196 187 185 184 185 183 184 179 176 177 176 183 181 180 180 180 179 179 181
50 44 229 167 135 128 150 156 164 183 191 193 208 238 242 237 231 233 236 238 235 237 243 233 226 208 197 193 190 188 188 184 183 187 184 181 173 172 174 167 169 173 170 171
105 259 208 106 94 115 123 162 165 160 134 173 168 266 246 245 241 244 239 236 237 230 229 224 217 215 202 199 195 193 190 186 186 179 162 143 128 122 154 177 177 171 165 162
55 346 80 89 68 112 123 178 138 121 117 243 168 257 261 235 242 243 243 237 235 234 226 219 213 211 208 208 201 193 188 185 183 175 175 174 180 186 189 181 178 167 161 159
16 21 69 85 334 119 166 105 93 99 106 3 212 214 274 247 240 242 237 234 232 229 220 217 214 212 210 203 196 194 185 182 181 179 182 182 185 185 165 154 161 165 158 152
345 312 115 209 259 129 119 66 48 41 63 283 224 199 272 232 225 239 237 232 231 229 223 218 215 205 203 195 185 180 175 178 177 178 181 184 183 174 165 167 169 167 155 146
0 342 329 52 71 46 81 89 55 11 349 248 231 212 251 248 238 232 232 228 222 218 214 211 203 197 194 189 185 178 175 178 179 179 183 187 182 176 176 174 172 167 163 160
111 302 281 200 153 156 145 137 157 187 216 270 262 230 254 263 265 247 234 227 220 216 214 209 203 198 195 190 185 178 177 178 175 175 178 176 170 168 168 166 161 163 158 150
170 263 312 210 166 141 142 173 170 137 228 264 263 275 301 307 321 312 286 224 216 224 221 210 200 198 196 192 188 182 176 174 174 170 161 156 155 154 152 147 140 142 141 139
148 189 301 320 69 29 146 149 113 138 193 250 271 264 258 297 305 326 331 283 247 232 218 196 193 193 194 191 182 170 172 176 171 163 162 157 153 148 146 143 143 143 140 134
126 142 317 10 203 205 160 168 156 165 195 203 258 267 241 262 276 297 299 279 264 234 222 228 216 198 184 173 171 173 172 166 165 160 151 144 143 137 135 135 140 140 133 134
151 129 224 259 268 206 184 195 168 184 240 218 236 269 282 284 288 312 317 320 318 295 259 232 218 186 176 181 181 181 178 173 169 159 150 146 140 137 137 139 140 136 134 133
143 126 69 338 336 7 223 221 198 184 207 216 230 266 315 341 334 330 325 321 319 306 298 287 244 212 205 197 190 188 184 177 164 155 150 147 149 150 152 150 143 138 135 132
122 141 177 202 222 205 238 244 212 192 225 242 238 266 296 317 319 321 318 310 300 284 271 259 250 241 228 212 199 192 190 176 165 159 159 161 165 163 159 152 146 144 142 140
119 182 219 242 253 241 244 248 229 222 223 232 254 264 278 291 294 302 308 311 305 289 276 258 249 244 233 223 214 202 194 182 169 165 171 174 165 157 152 151 148 144 142 145
122 171 227 278 268 258 264 257 243 239 237 241 258 270 274 288 301 308 306 304 300 295 285 274 261 250 238 225 217 207 199 189 174 174 178 167 159 158 158 156 151 148 148 148
152 145 159 269 304 328 276 248 227 227 223 219 240 259 288 303 310 303 303 319 314 305 298 288 274 257 246 235 218 209 201 185 177 178 174 168 165 166 165 159 156 160 159 155
155 143 163 251 359 251 248 273 232 229 251 256 262 290 302 291 295 292 294 313 313 315 309 302 289 274 260 240 222 206 186 178 179 178 175 171 168 168 163 162 167 166 160 164
160 152 164 178 249 277 290 303 285 238 266 4 336 333 328 315 325 304 319 324 309 307 303 293 288 278 271 250 217 187 181 179 182 186 184 179 173 169 169 175 177 170 165 170
126 135 154 178 227 252 263 298 307 251 254 359 358 339 335 348 333 302 322 320 311 309 309 305 303 297 287 267 207 181 186 186 196 196 189 179 175 175 180 181 175 167 167 174
138 160 186 203 234 264 265 292 20 178 270 328 331 326 328 307 276 289 307 308 306 306 308 311 311 303 290 276 201 192 194 205 204 183 173 174 177 178 175 169 166 164 166 168
177 181 193 184 217 251 272 99 164 244 299 313 313 309 306 298 297 303 309 309 312 313 313 315 317 312 312 293 198 200 213 207 170 163 169 175 175 173 168 165 166 167 168 176
194 190 190 198 218 234 186 190 208 217 293 295 295 299 298 299 300 305 307 310 312 313 311 312 310 315 321 318 229 213 225 174 159 161 171 172 169 169 166 169 171 171 178 188
245 173 179 239 254 250 252 208 226 275 271 282 285 291 295 295 297 301 304 308 308 308 308 310 310 313 318 323 321 241 204 168 160 168 172 170 171 172 171 175 177 184 192 199
216 178 192 245 267 295 248 238 281 297 300 298 298 296 294 296 297 297 299 303 304 304 309 307 302 301 307 322 332 324 186 163 166 172 174 175 178 178 183 189 195 198 204 203
198 180 184 221 224 217 253 262 284 296 299 300 304 305 303 295 293 297 296 298 301 306 312 317 314 307 310 324 340 353 108 166 170 180 184 184 183 184 188 193 209 218 216 223
Height
1497 1500 1503 1502 1502 1503 1504 1506 1508 1507 1506 1509 1510 1509 1506 1504 1505 1505 1504 1505 1505 1506 1507 1508 1510 1512 1514 1516 1518 1521 1523 1526 1529 1531 1533 1535 1537 1539 1541 1543 1545 1546 1548 1549
1502 1503 1501 1500 1501 1502 1504 1506 1507 1506 1505 1507 1508 1508 1505 1503 1502 1501 1500 1501 1502 1502 1503 1505 1506 1508 1510 1512 1514 1517 1519 1522 1525 1527 1530 1532 1534 1536 1538 1540 1541 1543 1544 1545
1503 1503 1499 1499 1501 1503 1504 1506 1506 1507 1506 1505 1508 1509 1504 1499 1498 1497 1496 1496 1497 1498 1499 1501 1503 1504 1506 1509 1511 1513 1515 1518 1520 1523 1526 1529 1531 1532 1534 1536 1537 1539 1540 1542
1502 1501 1500 1501 1502 1503 1506 1503 1503 1505 1510 1513 1511 1516 1504 1498 1496 1493 1491 1491 1492 1493 1495 1496 1498 1500 1502 1504 1507 1509 1511 1514 1516 1519 1521 1523 1525 1526 1528 1531 1533 1535 1536 1538
1505 1503 1502 1503 1503 1502 1504 1503 1504 1506 1510 1514 1512 1516 1505 1497 1494 1489 1486 1486 1486 1488 1490 1492 1494 1496 1498 1500 1503 1505 1507 1509 1512 1514 1517 1519 1521 1523 1525 1527 1529 1531 1532 1533
1504 1502 1502 1502 1501 1501 1502 1505 1508 1512 1515 1519 1512 1515 1506 1496 1488 1483 1481 1480 1481 1483 1485 1487 1490 1492 1494 1496 1498 1500 1503 1505 1508 1510 1512 1515 1516 1518 1521 1522 1524 1526 1528 1529
1507 1504 1502 1502 1503 1504 1506 1514 1523 1524 1526 1520 1510 1510 1501 1486 1481 1478 1477 1476 1477 1479 1481 1483 1485 1487 1490 1492 1494 1496 1499 1501 1503 1506 1508 1510 1512 1514 1516 1518 1520 1522 1523 1524
1513 1513 1505 1503 1504 1506 1508 1513 1524 1525 1525 1520 1508 1507 1493 1480 1476 1474 1474 1474 1475 1476 1477 1479 1481 1483 1486 1488 1490 1493 1495 1497 1500 1501 1504 1506 1508 1510 1512 1514 1516 1517 1519 1520
1512 1512 1504 1503 1503 1505 1508 1512 1512 1519 1520 1519 1511 1500 1488 1477 1475 1474 1473 1473 1473 1474 1475 1476 1478 1480 1482 1485 1487 1489 1491 1494 1496 1498 1500 1502 1504 1506 1508 1509 1511 1513 1515 1516
1506 1510 1506 1504 1503 1505 1506 1509 1515 1518 1520 1516 1508 1502 1495 1483 1478 1476 1474 1473 1473 1474 1474 1475 1476 1478 1479 1482 1484 1486 1488 1490 1492 1494 1495 1497 1499 1501 1504 1505 1507 1509 1510 1511
1504 1511 1510 1507 1507 1507 1508 1509 1511 1516 1518 1517 1511 1503 1486 1482 1479 1477 1475 1473 1473 1473 1474 1474 1475 1476 1477 1479 1481 1482 1484 1486 1487 1489 1491 1493 1495 1497 1499 1501 1503 1505 1506 1507
1504 1511 1515 1510 1505 1504 1505 1507 1510 1516 1515 1515 1514 1501 1481 1480 1477 1476 1474 1473 1473 1473 1473 1473 1473 1474 1475 1476 1477 1479 1480 1482 1483 1485 1487 1488 1490 1492 1495 1497 1499 1500 1502 1503
1502 1510 1518 1515 1512 1507 1506 1505 1506 1509 1512 1513 1511 1498 1480 1479 1477 1476 1474 1473 1472 1472 1472 1472 1472 1472 1473 1474 1474 1475 1477 1478 1479 1481 1483 1484 1486 1489 1491 1493 1495 1496 1498 1498
1500 1508 1515 1515 1509 1506 1506 1504 1504 1508 1510 1508 1503 1493 1484 1481 1479 1476 1475 1473 1472 1471 1471 1470 1470 1470 1471 1471 1471 1472 1473 1474 1476 1477 1479 1481 1483 1485 1487 1489 1491 1492 1493 1494
1500 1506 1506 1505 1503 1503 1502 1501 1500 1503 1502 1503 1495 1491 1484 1481 1479 1477 1474 1472 1471 1470 1469 1468 1468 1468 1468 1468 1468 1469 1470 1471 1472 1473 1475 1477 1480 1482 1484 1485 1487 1488 1489 1490
1501 1504 1504 1504 1500 1500 1499 1495 1495 1495 1494 1493 1490 1487 1481 1479 1477 1475 1473 1471 1469 1468 1467 1466 1465 1465 1464 1464 1465 1465 1466 1467 1468 1469 1471 1474 1476 1478 1480 1482 1483 1484 1485 1486
1502 1505 1508 1509 1504 1501 1500 1490 1489 1489 1486 1487 1487 1483 1479 1477 1475 1474 1472 1470 1468 1466 1465 1463 1462 1461 1460 1460 1460 1461 1462 1463 1464 1466 1468 1470 1472 1474 1476 1478 1479 1481 1481 1482
1501 1504 1509 1510 1507 1508 1493 1485 1484 1484 1483 1483 1481 1480 1478 1476 1474 1472 1471 1469 1466 1464 1462 1460 1458 1457 1456 1456 1456 1457 1458 1459 1460 1462 1464 1466 1468 1471 1472 1474 1476 1477 1478 1479
1496 1502 1507 1510 1510 1501 1490 1485 1484 1484 1483 1482 1480 1479 1477 1474 1472 1470 1469 1467 1465 1462 1460 1457 1455 1454 1452 1452 1452 1453 1453 1454 1456 1458 1460 1462 1465 1467 1469 1470 1472 1473 1474 1475
1496 1499 1506 1508 1506 1500 1489 1483 1481 1482 1483 1481 1480 1478 1476 1474 1474 1470 1467 1465 1462 1460 1457 1454 1452 1450 1449 1448 1448 1449 1449 1450 1452 1454 1456 1459 1461 1463 1465 1466 1468 1469 1470 1471
1498 1501 1504 1505 1503 1494 1486 1482 1481 1487 1485 1481 1479 1477 1476 1474 1473 1469 1465 1463 1460 1457 1454 1452 1449 1447 1446 1445 1445 1445 1446 1447 1449 1451 1453 1455 1457 1459 1461 1462 1464 1465 1466 1467
1494 1498 1500 1501 1501 1494 1482 1481 1484 1483 1480 1479 1477 1476 1474 1471 1468 1465 1462 1460 1457 1454 1451 1449 1446 1444 1443 1442 1442 1442 1443 1444 1446 1447 1449 1451 1453 1454 1456 1458 1459 1461 1462 1462
1488 1488 1490 1490 1488 1481 1479 1479 1480 1479 1478 1477 1475 1473 1471 1468 1465 1462 1460 1457 1454 1451 1448 1446 1444 1442 1441 1440 1440 1440 1440 1441 1442 1444 1445 1447 1449 1450 1452 1454 1455 1456 1457 1458
1484 1482 1484 1484 1480 1478 1478 1477 1477 1477 1476 1474 1472 1470 1467 1464 1462 1459 1456 1453 1451 1448 1446 1444 1442 1440 1439 1438 1437 1437 1438 1438 1439 1440 1441 1443 1444 1446 1448 1449 1450 1451 1452 1453
1479 1480 1481 1481 1477 1476 1475 1475 1475 1473 1472 1470 1468 1466 1464 1461 1458 1456 1453 1450 1448 1445 1443 1441 1439 1438 1437 1436 1435 1435 1435 1435 1436 1437 1438 1439 1440 1442 1443 1445 1446 1447 1448 1449
1474 1475 1478 1476 1473 1474 1472 1472 1471 1469 1467 1466 1463 1461 1459 1457 1454 1452 1449 1447 1445 1442 1440 1438 1437 1435 1434 1434 1433 1432 1432 1433 1433 1434 1434 1436 1437 1438 1439 1440 1442 1442 1444 1445